[[[{"header":{"parameterUnit":"kt","parameterCategory":2,"dx":1,"dy":1,"la1":30.253999710083008,"la2":30.299108505249023,"lo1":-89.0895004272461,"lo2":-89.04439544677734,"nx":28,"ny":28,"refTime":"2022-09-23T21:00:00:Z","depth":0,"parameterNumber":1,"parameterNumberName":"U-component_of_WINDS"},"data":[-4.983,-4.9915,-4.9894,-4.9982,-4.9978,-5.0034,-5.0048,-5.0064,-5.0071,-5.0138,-5.0173,-5.0161,-5.0161,-5.0199,-5.0237,-5.0231,-5.0248,-5.0295,-5.028,-5.0089,-5.0061,-5.0034,-5.0011,-5.0299,-5.03,-5.048,-5.0481,-5.0483,-4.9698,-4.9694,-4.9734,-4.9758,-4.9792,-4.9735,-4.975,-4.9782,-4.9835,-4.9844,-4.9877,-4.9934,-4.9976,-4.9959,-4.9997,-5.0038,-5.0013,-5.005,-5.0046,-5.0047,-4.9842,-4.9818,-5.007,-5.007,-5.007,-5.007,-5.007,-5.007,-4.945,-4.9502,-4.9502,-4.9544,-4.955,-4.9567,-4.9613,-4.9595,-4.9634,-4.9668,-4.9635,-4.9694,-4.9699,-4.9733,-4.9739,-4.9786,-4.974,-4.9774,-4.9782,-4.9791,-4.9804,-4.9549,-4.9791,-4.979,-4.9789,-4.9789,-4.9788,0,-4.9262,-4.924,-4.9274,-4.9304,-4.9333,-4.9354,-4.9369,-4.9397,-4.9342,-4.9376,-4.9424,-4.9449,-4.9497,-4.954,-4.957,-4.9568,-4.9511,-4.9503,-4.9526,-4.9542,-4.9554,-4.9549,-4.9217,-4.9495,-4.9492,-4.949,-4.9489,-4.9488,-4.901,-4.9072,-4.906,-4.9088,-4.9089,-4.9136,-4.9158,-4.9104,-4.9131,-4.9142,-4.9191,-4.9233,-4.9263,-4.9345,-4.9323,-4.9359,-4.9331,-4.944,-4.9336,-4.9351,-4.9332,-4.9329,-4.9335,-4.946,-4.9464,-4.9467,-4.9469,0,-4.8871,-4.8832,-4.8919,-4.8901,-4.8898,-4.8966,-4.895,-4.9,-4.8975,-4.904,-4.9052,-4.9014,-4.9063,-4.9022,-4.9068,-4.9046,-4.9162,-4.9134,-4.916,-4.9152,-4.9245,-4.9237,-4.9554,-4.9593,-4.9295,-4.9298,-4.93,0,-4.864,-4.8723,-4.8659,-4.8712,-4.8803,-4.8744,-4.8836,-4.8824,-4.8824,-4.8874,-4.8801,-4.885,-4.8789,-4.8833,-4.8799,-4.8886,-4.8894,-4.8882,-4.8872,-4.8888,-4.889,-4.89,-4.8886,-4.8846,-4.8845,-4.8843,-4.8842,0,-4.8425,-4.8487,-4.8572,-4.858,-4.8566,-4.8608,-4.8605,-4.8603,-4.8626,-4.8648,-4.8662,-4.8694,-4.871,-4.8737,-4.8692,-4.8624,-4.8798,-4.8693,-4.8785,-4.8786,-4.8823,-4.8821,-4.9114,-4.884,-4.8839,-4.8839,-4.8838,0,-4.8231,-4.8252,-4.8382,-4.8369,-4.8387,-4.8444,-4.8468,-4.8506,-4.851,-4.8491,-4.8508,-4.8453,-4.8524,-4.8424,-4.8522,-4.8445,-4.8467,-4.846,-4.8466,-4.8468,-4.8357,-4.8527,-4.8811,-4.8839,-4.8474,-4.8471,-4.8468,0,-4.7996,-4.8115,-4.8062,-4.8187,-4.8235,-4.8147,-4.8209,-4.8213,-4.8193,-4.8232,-4.8209,-4.8254,-4.8171,-4.8178,-4.8233,-4.8211,-4.8312,-4.8196,-4.8256,-4.8259,-4.8257,-4.8518,-4.8569,-4.8754,-4.8429,-4.8433,-4.8436,0,-4.7808,-4.7787,-4.7812,-4.7817,-4.781,-4.785,-4.7922,-4.7951,-4.798,-4.7992,-4.805,-4.8112,-4.8051,-4.8064,-4.8021,-4.808,-4.8242,-4.8006,-4.8005,-4.8051,-4.8405,-4.8454,-4.8485,-4.8201,-4.8206,-4.821,-4.8405,0,-4.7524,-4.7576,-4.7643,-4.7655,-4.7678,-4.7752,-4.7703,-4.7734,-4.769,-4.7664,-4.7749,-4.7739,-4.777,-4.7793,-4.7749,-4.7896,-4.7864,-4.7798,-4.7695,-4.7868,-4.7931,-4.7956,-4.7606,-4.7603,-4.76,-4.7598,0,0,-4.7309,-4.7381,-4.7319,-4.7383,-4.7398,-4.7303,-4.7386,-4.7391,-4.7401,-4.7414,-4.7357,-4.7442,-4.7436,-4.7544,-4.7593,-4.7606,-4.7628,-4.7568,-4.7786,-4.7807,-4.7827,-4.7895,-4.7923,-4.7593,-4.7592,-4.7591,-4.759,0,-4.7193,-4.7187,-4.7269,-4.727,-4.7268,-4.7235,-4.7256,-4.7237,-4.7224,-4.7305,-4.7224,-4.7269,-4.7337,-4.7341,-4.7353,-4.7555,-4.7491,-4.7568,-4.7693,-4.776,-4.7785,-4.7807,-4.7879,-4.7906,-4.7583,-4.7583,-4.7584,0,-4.6998,-4.6983,-4.7017,-4.7044,-4.7042,-4.7093,-4.6973,-4.7031,-4.7069,-4.6959,-4.704,-4.7028,-4.7029,-4.7137,-4.7183,-4.7131,-4.737,-4.7285,-4.7301,-4.7304,-4.7366,-4.7396,-4.7423,-4.707,-4.7069,-4.7067,0,0,-4.6905,-4.6952,-4.6916,-4.7015,-4.702,-4.6971,-4.6992,-4.6948,-4.6949,-4.695,-4.6931,-4.6936,-4.6975,-4.7002,-4.7035,-4.7161,-4.7156,-4.7223,-4.7248,-4.7268,-4.7282,-4.7349,-4.7379,-4.7061,-4.7061,-4.7061,0,0,-4.686,-4.6822,-4.6775,-4.6883,-4.6887,-4.6858,-4.6921,-4.6864,-4.6887,-4.6873,-4.6802,-4.6799,-4.6899,-4.6889,-4.6815,-4.6998,-4.6897,-4.6914,-4.7,-4.7029,-4.7053,-4.7053,-4.6689,0,0,0,0,0,-4.6714,-4.6827,-4.6785,-4.6795,-4.6828,-4.6882,-4.6886,-4.6828,-4.6759,-4.6811,-4.6786,-4.6715,-4.6835,-4.6768,-4.678,-4.6862,-4.6984,-4.6998,-4.7011,-4.7151,-4.7182,-4.7209,0,0,0,0,0,0,-4.6717,-4.673,-4.6781,-4.6758,-4.6765,-4.6877,-4.6747,-4.6734,-4.6752,-4.6737,-4.6722,-4.6714,-4.6667,-4.6758,-4.6769,-4.6849,-4.6685,-4.6989,-4.7001,-4.7011,-4.7161,-4.7187,-4.721,0,0,0,0,0,-4.672,-4.673,-4.6798,-4.6756,-4.6762,-4.6713,-4.6742,-4.673,-4.6743,-4.6703,-4.6693,-4.6698,-4.6671,-4.6677,-4.6764,-4.6845,-4.6677,-4.6681,-4.6997,-4.7006,-4.7014,-4.7174,0,0,0,0,0,0,-4.6722,-4.672,-4.6797,-4.6797,-4.6708,-4.6705,-4.6703,-4.6727,-4.6706,-4.6698,-4.6675,-4.6663,-4.6675,-4.6679,-4.6684,-4.6847,-4.667,-4.6675,-4.6677,-4.7004,-4.7011,-4.7017,0,0,0,0,0,0,-4.6714,-4.6721,-4.6797,-4.674,-4.6732,-4.6699,-4.6697,-4.6762,-4.6707,-4.6679,-4.6669,-4.667,-4.6668,-4.6681,-4.6684,-4.6789,-4.6665,-4.6669,-4.6672,-4.6674,-4.701,-4.7015,0,0,0,0,0,0,-4.6716,-4.6722,-4.6739,-4.6734,-4.6727,-4.6719,-4.6755,-4.6793,-4.6657,-4.6681,-4.6644,-4.6637,-4.6672,-4.6674,-4.6685,-4.6789,-4.6789,-4.6665,-4.6668,-4.667,-4.6671,0,0,0,0,0,0,0,-4.6717,-4.6694,-4.6799,-4.6729,-4.6722,-4.6795,-4.6795,-4.6795,-4.6656,-4.6651,-4.6645,-4.664,-4.6639,-4.6644,-4.6649,-4.6789,0,0,-4.6664,-4.6666,0,0,0,0,0,0,0,0,-4.6691,-4.6693,-4.6799,-4.6799,-4.6799,-4.6795,-4.6795,-4.6795,-4.6655,-4.6651,-4.6646,-4.6642,-4.6641,-4.6644,-4.6648,0,0,0,0,0,0,0,0,0,0,0,0,0,0,0,-4.6799,-4.6799,0,-4.6795,-4.6795,-4.6795,-4.6654,-4.6651,-4.6647,-4.6644,-4.6642,-4.6645,-4.6648,0,0,0,0,0,0,0,0,0,0,0,0,0,0,0,0,0,0,0,0,0,0,0,0,0,0,0,0,0,0,0,0,0,0,0,0,0,0,0,0,0,0,0,0,0,0,0,0,0,0,0,0,0,0,0,0,0,0,0,0,0,0,0,0,0,0,0,0,0]}],[{"header":{"parameterUnit":"kt","parameterCategory":2,"dx":1,"dy":1,"la1":30.253999710083008,"la2":30.299108505249023,"lo1":-89.0895004272461,"lo2":-89.04439544677734,"nx":28,"ny":28,"refTime":"2022-09-23T21:00:00:Z","depth":0,"parameterNumber":2,"parameterNumberName":"V-component_of_WINDS"},"data":[4.374,4.3764,4.3799,4.3842,4.388,4.3915,4.3938,4.3971,4.4006,4.405,4.4081,4.4116,4.4163,4.4206,4.424,4.4254,4.4265,4.4249,4.4269,4.4312,4.432,4.4328,4.4325,4.4252,4.4252,4.4218,4.4217,4.4217,4.3768,4.3807,4.3841,4.3896,4.3925,4.3961,4.4008,4.4028,4.4057,4.41,4.4133,4.4173,4.4209,4.4262,4.4301,4.4311,4.4329,4.4319,4.4318,4.4324,4.4373,4.4369,4.4304,4.4304,4.4304,4.4304,4.4304,4.4304,4.383,4.3843,4.3898,4.3934,4.3972,4.4008,4.4026,4.4071,4.4103,4.415,4.4184,4.4217,4.4265,4.4328,4.4357,4.4383,4.4399,4.4398,4.4397,4.4395,4.4389,4.4431,4.4391,4.4391,4.4392,4.4392,4.4392,0,4.3885,4.3913,4.3948,4.3993,4.4021,4.4059,4.4099,4.4111,4.418,4.4203,4.4239,4.4265,4.4316,4.4351,4.4395,4.4426,4.4463,4.4471,4.447,4.4453,4.4432,4.4441,4.4517,4.4471,4.4472,4.4473,4.4473,4.4474,4.3947,4.396,4.4033,4.4053,4.4084,4.4114,4.4139,4.42,4.4223,4.428,4.4287,4.4325,4.4358,4.4408,4.4457,4.4493,4.4511,4.449,4.4517,4.4501,4.4509,4.4506,4.4507,4.4482,4.4481,4.448,4.4479,0,4.3979,4.4036,4.4066,4.4138,4.4156,4.4165,4.4225,4.424,4.4282,4.4308,4.4317,4.4381,4.4414,4.4468,4.4515,4.4542,4.4553,4.457,4.4537,4.4542,4.4527,4.4527,4.4472,4.4468,4.4546,4.4546,4.4545,0,4.4053,4.4067,4.4151,4.4166,4.4182,4.4244,4.4258,4.4295,4.4339,4.436,4.4413,4.4431,4.4497,4.4523,4.4562,4.4581,4.459,4.4611,4.462,4.4605,4.4602,4.4615,4.4617,4.4644,4.4645,4.4645,4.4645,0,4.4095,4.4157,4.4181,4.4204,4.4281,4.429,4.4322,4.4372,4.4395,4.4434,4.4449,4.4489,4.4509,4.4539,4.4588,4.4604,4.4613,4.4646,4.4634,4.4633,4.4631,4.463,4.4571,4.4645,4.4645,4.4646,4.4646,0,4.4163,4.4204,4.4231,4.4296,4.431,4.4325,4.437,4.4396,4.4444,4.447,4.4501,4.4542,4.4564,4.4592,4.4624,4.463,4.4647,4.467,4.467,4.4673,4.4702,4.4659,4.4599,4.4594,4.4678,4.4679,4.4679,0,4.4194,4.4237,4.4291,4.4315,4.4342,4.4401,4.4418,4.446,4.4497,4.4524,4.4565,4.4594,4.4626,4.4643,4.4651,4.4693,4.4684,4.4696,4.4729,4.473,4.4713,4.466,4.4636,4.4607,4.4683,4.4683,4.4683,0,4.4225,4.4321,4.4322,4.435,4.4417,4.444,4.4461,4.4505,4.452,4.4561,4.4578,4.4622,4.4648,4.4674,4.4711,4.4717,4.4692,4.4743,4.4745,4.473,4.4691,4.4668,4.4663,4.4715,4.4715,4.4714,4.4686,0,4.4313,4.4342,4.4347,4.4408,4.4435,4.4453,4.4513,4.4533,4.4567,4.4606,4.4633,4.468,4.4722,4.4731,4.4764,4.4762,4.477,4.4796,4.4826,4.4791,4.4783,4.4779,4.4833,4.4834,4.4835,4.4836,0,0,4.4327,4.4371,4.4429,4.4453,4.4479,4.454,4.4553,4.4585,4.4647,4.4663,4.4681,4.4747,4.4784,4.481,4.4804,4.4821,4.4825,4.4835,4.4807,4.4804,4.4801,4.4791,4.4787,4.4838,4.4838,4.4839,4.4839,0,4.4371,4.4413,4.4427,4.4464,4.452,4.4561,4.4564,4.463,4.4655,4.4683,4.473,4.4753,4.4804,4.4837,4.486,4.4834,4.4867,4.4843,4.4809,4.4816,4.4811,4.4807,4.4796,4.4792,4.4841,4.4841,4.4841,0,4.4411,4.4461,4.4475,4.4539,4.4576,4.4602,4.4649,4.4674,4.4694,4.4756,4.4782,4.4815,4.4864,4.4881,4.4891,4.4907,4.4901,4.4914,4.4909,4.491,4.4919,4.4913,4.4908,4.4976,4.4976,4.4976,0,0,4.444,4.4469,4.4541,4.4553,4.4573,4.4634,4.4654,4.4691,4.4735,4.4752,4.4796,4.4836,4.4867,4.4885,4.4917,4.4928,4.4942,4.4928,4.4921,4.4916,4.4914,4.4922,4.4916,4.4977,4.4977,4.4977,0,0,4.4454,4.4539,4.4567,4.4588,4.463,4.47,4.4704,4.4738,4.4773,4.4777,4.4838,4.4851,4.4868,4.4899,4.4904,4.4928,4.4956,4.4956,4.4907,4.49,4.4894,4.4885,4.4956,0,0,0,0,0,4.453,4.4529,4.4553,4.4566,4.4646,4.4687,4.4697,4.4749,4.4768,4.477,4.4812,4.4846,4.4914,4.4921,4.4931,4.4923,4.4989,4.4987,4.4985,4.4925,4.4917,4.491,0,0,0,0,0,0,4.4536,4.4551,4.4553,4.4622,4.4641,4.4687,4.4731,4.4745,4.4769,4.4775,4.4837,4.4848,4.4891,4.4919,4.4927,4.4919,4.4954,4.4988,4.4986,4.4985,4.4922,4.4916,4.491,0,0,0,0,0,4.454,4.4553,4.4668,4.4623,4.4639,4.4707,4.4732,4.4744,4.4763,4.4828,4.484,4.48,4.4889,4.49,4.4924,4.4914,4.4948,4.4951,4.4987,4.4986,4.4984,4.4919,0,0,0,0,0,0,4.4544,4.4563,4.4672,4.4679,4.4628,4.4705,4.4719,4.4742,4.4815,4.4827,4.4793,4.4797,4.4888,4.4897,4.4904,4.4909,4.4944,4.4947,4.4949,4.4986,4.4985,4.4984,0,0,0,0,0,0,4.4557,4.4568,4.4676,4.4679,4.4686,4.4703,4.4716,4.4744,4.4815,4.4776,4.4782,4.4794,4.4876,4.4894,4.49,4.4941,4.494,4.4943,4.4945,4.4946,4.4985,4.4984,0,0,0,0,0,0,4.4563,4.4573,4.4677,4.4683,4.469,4.4769,4.4729,4.4807,4.482,4.4772,4.4823,4.4824,4.4872,4.488,4.4897,4.4936,4.494,4.494,4.4942,4.4944,4.4945,0,0,0,0,0,0,0,4.4567,4.4489,4.4633,4.4687,4.4693,4.4741,4.4743,4.4744,4.482,4.4821,4.4822,4.4823,4.4924,4.4927,4.493,4.4931,0,0,4.494,4.4941,0,0,0,0,0,0,0,0,4.4486,4.4488,4.4633,4.4634,4.4636,4.4741,4.4743,4.4744,4.4821,4.4821,4.4822,4.4823,4.4925,4.4927,4.493,0,0,0,0,0,0,0,0,0,0,0,0,0,0,0,4.4633,4.4634,0,4.4741,4.4742,4.4744,4.4821,4.4821,4.4822,4.4823,4.4926,4.4928,4.493,0,0,0,0,0,0,0,0,0,0,0,0,0,0,0,0,0,0,0,0,0,0,0,0,0,0,0,0,0,0,0,0,0,0,0,0,0,0,0,0,0,0,0,0,0,0,0,0,0,0,0,0,0,0,0,0,0,0,0,0,0,0,0,0,0,0,0,0,0]}]]]